When you browse on this site, cookies collect data to enhance your experience and personalize the content and advertising you see.
Visit our Privacy Policy to learn more. By continuing to use the site, you agree to this use of cookies and data.
  • In Latvia
  • List of Countries
  • For 7 days
  • Water Temperature
  • Weather Map
  • Weather Widgets
  • user-avatar
    Login

    Hourly Weather Bielawa

    Today, 31 May, Sunday

    Time Temperature Precipitation Wind Pressure Humidity
    00:00 +8°C° 0 mm 2 mps 735 mmHg 86%
    01:00 +9°C° 0 mm 3 mps 735 mmHg 81%
    02:00 +8°C° 0 mm 3 mps 734 mmHg 80%
    03:00 +8°C° 0 mm 3 mps 734 mmHg 80%
    04:00 +8°C° 0 mm 3 mps 733 mmHg 79%
    05:00 +7°C° 0.3 mm 4 mps 733 mmHg 84%
    06:00 +6°C° 0.3 mm 4 mps 733 mmHg 89%
    07:00 +6°C° 0 mm 5 mps 733 mmHg 93%
    08:00 +6°C° 1.1 mm 5 mps 733 mmHg 94%
    09:00 +6°C° 1.1 mm 5 mps 733 mmHg 95%
    10:00 +7°C° 1.1 mm 6 mps 733 mmHg 96%
    11:00 +7°C° 0.4 mm 5 mps 733 mmHg 95%
    12:00 +8°C° 0.4 mm 5 mps 734 mmHg 95%
    13:00 +9°C° 0.4 mm 5 mps 734 mmHg 94%
    14:00 +11°C° 0.1 mm 4 mps 734 mmHg 93%
    15:00 +12°C° 0.1 mm 4 mps 734 mmHg 92%
    16:00 +13°C° 0.1 mm 3 mps 734 mmHg 91%
    17:00 +13°C° 0.2 mm 3 mps 734 mmHg 91%
    18:00 +13°C° 0.2 mm 3 mps 735 mmHg 91%
    19:00 +13°C° 0.2 mm 3 mps 735 mmHg 91%
    20:00 +13°C° 0.1 mm 3 mps 735 mmHg 92%
    21:00 +12°C° 0.1 mm 3 mps 736 mmHg 93%
    22:00 +13°C° 0.1 mm 2 mps 736 mmHg 93%
    23:00 +12°C° 0.1 mm 2 mps 736 mmHg 94%

    Tomorrow, 1 June, Monday

    Time Temperature Precipitation Wind Pressure Humidity
    00:00 +12°C° 0.1 mm 2 mps 737 mmHg 95%
    01:00 +10°C° 0.1 mm 2 mps 737 mmHg 95%
    02:00 +9°C° 0 mm 2 mps 737 mmHg 96%
    03:00 +9°C° 0 mm 2 mps 737 mmHg 97%
    04:00 +8°C° 0 mm 2 mps 736 mmHg 97%
    05:00 +9°C° 0 mm 2 mps 737 mmHg 96%
    06:00 +10°C° 0 mm 2 mps 737 mmHg 94%
    07:00 +11°C° 0 mm 3 mps 737 mmHg 92%
    08:00 +12°C° 0 mm 3 mps 738 mmHg 85%
    09:00 +14°C° 0 mm 4 mps 738 mmHg 78%
    10:00 +15°C° 0 mm 4 mps 738 mmHg 71%
    11:00 +16°C° 0 mm 5 mps 738 mmHg 68%
    12:00 +16°C° 0 mm 5 mps 737 mmHg 64%
    13:00 +17°C° 0 mm 5 mps 737 mmHg 61%
    14:00 +17°C° 0 mm 5 mps 737 mmHg 62%
    15:00 +16°C° 0 mm 5 mps 737 mmHg 63%
    16:00 +16°C° 0 mm 5 mps 737 mmHg 64%
    17:00 +15°C° 0 mm 5 mps 737 mmHg 69%
    18:00 +14°C° 0 mm 4 mps 736 mmHg 73%
    19:00 +12°C° 0 mm 3 mps 736 mmHg 78%
    20:00 +11°C° 0 mm 3 mps 736 mmHg 80%
    21:00 +10°C° 0 mm 2 mps 737 mmHg 83%
    22:00 +8°C° 0 mm 2 mps 737 mmHg 85%
    23:00 +8°C° 0 mm 2 mps 736 mmHg 87%

    Day after tomorrow, 2 June, Tuesday

    Time Temperature Precipitation Wind Pressure Humidity
    00:00 +7°C° 0 mm 2 mps 736 mmHg 89%
    01:00 +7°C° 0 mm 2 mps 736 mmHg 90%
    02:00 +7°C° 0 mm 2 mps 736 mmHg 90%
    03:00 +7°C° 0 mm 2 mps 735 mmHg 91%
    04:00 +7°C° 0 mm 2 mps 735 mmHg 91%
    05:00 +8°C° 0 mm 3 mps 735 mmHg 87%
    06:00 +10°C° 0 mm 3 mps 735 mmHg 84%
    07:00 +11°C° 0 mm 4 mps 735 mmHg 80%
    08:00 +12°C° 0.1 mm 5 mps 735 mmHg 77%
    09:00 +13°C° 0.1 mm 5 mps 735 mmHg 74%
    10:00 +14°C° 0.1 mm 6 mps 735 mmHg 72%
    11:00 +14°C° 0.2 mm 6 mps 734 mmHg 71%
    12:00 +14°C° 0.2 mm 6 mps 734 mmHg 71%
    13:00 +15°C° 0.2 mm 6 mps 733 mmHg 71%
    14:00 +14°C° 0.2 mm 6 mps 733 mmHg 74%
    15:00 +14°C° 0.2 mm 6 mps 733 mmHg 76%
    16:00 +14°C° 0.2 mm 6 mps 732 mmHg 79%
    17:00 +13°C° 0.1 mm 5 mps 732 mmHg 82%
    18:00 +12°C° 0.1 mm 3 mps 731 mmHg 84%
    19:00 +13°C° 0.1 mm 2 mps 731 mmHg 87%
    20:00 +12°C° 0.1 mm 1 mps 731 mmHg 88%
    21:00 +12°C° 0.1 mm 1 mps 731 mmHg 89%
    22:00 +11°C° 0.1 mm 1 mps 731 mmHg 90%
    23:00 +11°C° 0.3 mm 1 mps 731 mmHg 92%

    3 June, Wednesday

    Time Temperature Precipitation Wind Pressure Humidity
    00:00 +11°C° 0.3 mm 1 mps 730 mmHg 93%
    01:00 +11°C° 0.3 mm 1 mps 730 mmHg 94%
    02:00 +11°C° 0.1 mm 1 mps 730 mmHg 95%
    03:00 +11°C° 0.1 mm 1 mps 729 mmHg 96%
    04:00 +10°C° 0.1 mm 2 mps 729 mmHg 97%
    05:00 +12°C° 0.2 mm 2 mps 729 mmHg 96%
    06:00 +12°C° 0.2 mm 2 mps 729 mmHg 95%
    07:00 +13°C° 0.2 mm 2 mps 728 mmHg 94%
    08:00 +13°C° 0.2 mm 2 mps 728 mmHg 92%
    09:00 +13°C° 0.2 mm 3 mps 728 mmHg 90%
    10:00 +14°C° 0.2 mm 3 mps 728 mmHg 88%
    11:00 +16°C° 0.8 mm 3 mps 728 mmHg 85%
    12:00 +16°C° 0.8 mm 3 mps 728 mmHg 83%
    13:00 +17°C° 0.8 mm 3 mps 727 mmHg 80%
    14:00 +17°C° 0.7 mm 3 mps 727 mmHg 80%
    15:00 +17°C° 0.7 mm 2 mps 727 mmHg 79%
    16:00 +17°C° 0.7 mm 2 mps 727 mmHg 79%
    17:00 +18°C° 0.6 mm 1 mps 726 mmHg 82%
    18:00 +16°C° 0.6 mm 1 mps 726 mmHg 85%
    19:00 +14°C° 0.6 mm 0 mps 726 mmHg 88%
    20:00 +13°C° 0.1 mm 0 mps 726 mmHg 88%
    21:00 +12°C° 0.1 mm 0 mps 726 mmHg 88%
    22:00 +11°C° 0.1 mm 0 mps 726 mmHg 89%
    23:00 +11°C° 0 mm 1 mps 726 mmHg 89%

    4 June, Thursday

    Time Temperature Precipitation Wind Pressure Humidity
    00:00 +11°C° 0 mm 1 mps 726 mmHg 89%
    01:00 +11°C° 0 mm 1 mps 725 mmHg 90%
    02:00 +11°C° 0 mm 1 mps 725 mmHg 90%
    03:00 +10°C° 0 mm 1 mps 725 mmHg 90%
    04:00 +10°C° 0 mm 1 mps 725 mmHg 91%
    05:00 +12°C° 0 mm 1 mps 725 mmHg 89%
    06:00 +14°C° 0 mm 1 mps 725 mmHg 86%
    07:00 +16°C° 0 mm 1 mps 725 mmHg 84%
    08:00 +17°C° 0.1 mm 2 mps 725 mmHg 78%
    09:00 +19°C° 0.1 mm 2 mps 725 mmHg 73%
    10:00 +20°C° 0.1 mm 3 mps 725 mmHg 67%
    11:00 +21°C° 0.6 mm 3 mps 724 mmHg 67%
    12:00 +21°C° 0.6 mm 4 mps 724 mmHg 66%
    13:00 +21°C° 0.6 mm 5 mps 723 mmHg 66%
    14:00 +20°C° 0.3 mm 5 mps 723 mmHg 71%
    15:00 +19°C° 0.3 mm 5 mps 722 mmHg 76%
    16:00 +17°C° 0.3 mm 5 mps 722 mmHg 81%
    17:00 +16°C° 0.1 mm 5 mps 721 mmHg 83%
    18:00 +16°C° 0.1 mm 5 mps 721 mmHg 85%
    19:00 +17°C° 0.1 mm 4 mps 721 mmHg 87%
    20:00 +15°C° 0.7 mm 4 mps 721 mmHg 89%
    21:00 +13°C° 0.7 mm 4 mps 722 mmHg 91%
    22:00 +12°C° 0.7 mm 4 mps 722 mmHg 93%
    23:00 +12°C° 0 mm 4 mps 723 mmHg 93%

    5 June, Friday

    Time Temperature Precipitation Wind Pressure Humidity
    00:00 +11°C° 0 mm 4 mps 723 mmHg 93%
    01:00 +11°C° 0 mm 4 mps 723 mmHg 94%
    02:00 +10°C° 0 mm 4 mps 724 mmHg 94%
    03:00 +10°C° 0 mm 4 mps 724 mmHg 94%
    04:00 +9°C° 0 mm 3 mps 724 mmHg 94%
    05:00 +10°C° 0 mm 4 mps 725 mmHg 89%
    06:00 +9°C° 0 mm 5 mps 725 mmHg 84%
    07:00 +9°C° 0 mm 6 mps 726 mmHg 79%
    08:00 +10°C° 0 mm 6 mps 726 mmHg 73%
    09:00 +11°C° 0 mm 6 mps 726 mmHg 68%
    10:00 +13°C° 0 mm 6 mps 727 mmHg 63%
    11:00 +14°C° 0 mm 6 mps 727 mmHg 61%
    12:00 +15°C° 0 mm 6 mps 727 mmHg 59%
    13:00 +16°C° 0 mm 5 mps 727 mmHg 57%
    14:00 +16°C° 0 mm 5 mps 727 mmHg 58%
    15:00 +17°C° 0 mm 4 mps 727 mmHg 59%
    16:00 +17°C° 0 mm 4 mps 727 mmHg 61%
    17:00 +16°C° 0 mm 3 mps 727 mmHg 66%
    18:00 +15°C° 0 mm 2 mps 727 mmHg 71%
    19:00 +14°C° 0 mm 1 mps 727 mmHg 76%
    20:00 +13°C° 0 mm 1 mps 727 mmHg 78%
    21:00 +11°C° 0 mm 1 mps 727 mmHg 79%
    22:00 +10°C° 0 mm 1 mps 727 mmHg 80%
    23:00 +10°C° 0 mm 1 mps 727 mmHg 80%
    Show more